Regional Weather Roundup
Issued by NWS Charleston, SC

Current Version | Previous Version | Graphics & Text | Print | Product List | Glossary On
Versions: 1 2 3 4 5 6 7 8 9 10 11 12 13 14 15 16 17 18 19 20 21 22 23 24 25 26 27 28 29 30 31 32 33 34 35 36 37 38 39 40 41 42 43 44 45 46 47 48 49 50
000 ASUS42 KCHS 171912 RWRCHS REGIONAL WEATHER ROUNDUP NATIONAL WEATHER SERVICE CHARLESTON SC 200 PM EST FRI NOV 17 2017 NOTE: "FAIR" INDICATES FEW OR NO CLOUDS BELOW 12,000 FEET WITH NO SIGNIFICANT WEATHER AND/OR OBSTRUCTIONS TO VISIBILITY. NOT ALL STATIONS ARE QUALITY CONTROLLED. USE DATA WITH CAUTION... ESPECIALLY DEWPOINT OBSERVATIONS. SCZ027-030-031-034>040-042>050-172000- ...SOUTHEAST SOUTH CAROLINA... CITY SKY/WX TMP DP RH WIND PRES REMARKS N CHARLESTON SUNNY 64 38 38 CALM 30.15F WATERFRONT PRK N/A 59 47 64 E8 30.02S JOHNS ISLAND FAIR 61 46 59 E10 30.16F PINOPOLIS N/A 55 43 62 NW6 30.08F MONCKS CORNER FAIR 59 36 41 CALM 30.16F SUMMERVILLE FAIR 63 37 39 CALM 30.17S BEAUFORT MCAS SUNNY 65 40 39 E7 30.15F BEAUFORT ARPT FAIR 63 43 48 E7 30.15F HILTON HEAD IS SUNNY 61 50 67 NE9 30.17F WALTERBORO CLEAR 63 36 36 N5 30.16F ALLENDALE FAIR 64 34 32 CALM 30.15F ...SOUTHERN MIDLANDS AND PEE DEE... CITY SKY/WX TMP DP RH WIND PRES REMARKS GEORGETOWN FAIR 59 36 41 E6 30.17F KINGSTREE FAIR 59 34 38 CALM 30.17F ORANGEBURG SUNNY 62 33 33 NE6 30.17F BARNWELL N/A 66 34 30 E5 30.16F AIKEN FAIR 63 32 31 CALM 30.18F MANNING FAIR 61 37 41 MISG 30.16F COLUMBIA MOSUNNY 65 33 30 N3 30.16F SUMTER SUNNY 61 32 34 CALM 30.14F FLORENCE SUNNY 61 34 36 VRB3 30.17F MYRTLE BEACH SUNNY 58 39 49 VRB6 30.18F N MYRTLE BEACH SUNNY 59 36 42 CALM 30.16F $$ GAZ063-065-086>088-099>101-113>116-118-119-134>141-150-172000- ...SOUTHEAST GEORGIA... CITY SKY/WX TMP DP RH WIND PRES REMARKS SAVANNAH ARPT SUNNY 69 41 36 NE8 30.14F HUNTER AAF SUNNY 67 47 48 NE5 30.12F FORT STEWART SUNNY 70 46 40 E8 30.11F STATESBORO SUNNY 69 31 24 NE5 30.14F SYLVANIA CLEAR 68 39 34 CALM 30.16S CLAXTON FAIR 71 40 33 E6 30.14F ...CSRA...CENTRAL AND FAR SOUTHEAST GEORGIA... CITY SKY/WX TMP DP RH WIND PRES REMARKS THOMSON SUNNY 64 34 32 SW5 30.20F AUGUSTA-BUSH SUNNY 67 32 27 VRB6 30.15F AUGUSTA-DANIEL SUNNY 65 32 29 S6 30.16F SWAINSBORO FAIR 68 37 32 N3 30.14F VIDALIA SUNNY 70 41 35 E8 30.13F EASTMAN FAIR 71 21 14 E5 30.15F HAZLEHURST FAIR 70 24 17 NE3 30.11F ALMA SUNNY 70 44 39 VRB6 30.11F WAYCROSS SUNNY 71 45 39 E7 30.11F JESUP FAIR 70 48 46 CALM 30.12F BAXLEY FAIR 68 41 37 SE8 30.11F BRUNSWICK SUNNY 68 54 60 NE14 30.13S SAINT SIMONS SUNNY 69 56 62 NE12 30.11F $$ SCZ027-028-034-036>038-045-046-048>050-GAZ119-141-172000- ...LAKE AND SUPPLEMENTAL COASTAL OBSERVATIONS... STATION/POSITION TIME TEMP WIND PRES WAVE SWELL AIR SEA DIR/SP/G HT/PER HT/PER/DIR (UTC) (F) (DEG/KT/KT) (MB) (FT/S) (FT/S/D) WINYAH BAY NOT AVBL LAKE MURRAY 1820 58 210/ 4/ 5 1021.0F ACE BASIN NERRS 1745 65 70/ 3 1022.0 FORT PULASKI 1830 59 62 70/ 15/ 19 1021.4F SAPELO ISLAND 1800 67 50/ 12 1021.0 $$ ANZ835-935-AMZ111-154-330-350-352-354-370-450-454-472-172000- ...C-MAN AND BUOY OBSERVATIONS... STATION/POSITION TIME TEMP WIND PRES WAVE SWELL AIR SEA DIR/SP/G HT/PER HT/PER/DIR (UTC) (F) (DEG/KT/KT) (MB) (FT/S) (FT/S/D) BUOY 41004 1850 63 75 50/ 14/ 19 1020.4F 6/ 6 2/ 90/ 8 BUOY 41008 1850 65 69 40/ 17/ 21 1019.6F 5/ 5 2/110/ 9 FOLLY BEACH CMAN 1800 56 40/ 14/ 17 1022.5F CAPERS NEARSHORE 1808 54 63 50/ 16/ 23 1021.4F FRIPP NEARSHORE 1808 58 62 50/ 12/ 23 1020.1F STATION/POSITION TIME TEMP WIND PRES WAVE SWELL AIR SEA DIR/SP/G HT/PER HT/PER/DIR (UTC) (F) (DEG/KT/KT) (MB) (FT/S) (FT/S/D) 5E ST. MARYS GA 1900 66 N/A 3/11 2/ 70/11 FRYING PAN BUOY 1850 57 71 40/ 12/ 16 1020.8F 5/ 6 3/120/11 BUOY 41025 1900 53 64 360/ 17/ 21 1020.7 CAPE LOOKOUT NC 1800 52 10/ 8/ 11 1021.5F BUOY 41002 1850 69 77 30/ 16/ 19 1017.3F 8/ 7 5/ 60/11 BUOY 41010 NOT AVBL ST AUGUSTINE FL 1900 68 69 360/ 11/ 12 1019.2F $$

USA.gov is the U.S. government's official web portal to all federal, state and local government web resources and services.